Location: Monfort
(47.1967°N, 0.2115°W)
Time: 12:14:06
(UTC+00:00)

AQUARIUS - Pass Details

Date: 24 October 2020
Orbit: 650 x 653 km, 98.0° (Epoch: 27 November)

Event Time Altitude Azimuth Distance (km) Brightness Sun altitude
Rises 17:30:14 0° 168° (SSE) 2,962 7.5 -6.4°
Reaches altitude 10° 17:32:26 10° 170° (S) 2,056 6.8 -6.7°
Maximum altitude 17:36:55 78° 257° (WSW) 673 4.4 -7.5°
Drops below altitude 10° 17:41:27 10° 344° (NNW) 2,072 6.8 -8.3°
Sets 17:43:41 0° 346° (NNW) 2,987 7.6 -8.6°
